Tracking 29487 objects as of 10-Sep-2024
HD Live streaming from Space Station
objects crossing your sky now

STARLINK-5543

Track STARLINK-5543 now!
10-day predictions
STARLINK-5543 is classified as:


NORAD ID: 56341
Int'l Code: 2023-058AA
Perigee: 569.3 km
Apogee: 571.1 km
Inclination: 97.7 °
Period: 95.9 minutes
Semi major axis: 6941 km
RCS: Unknown
Launch date: April 27, 2023
Source: United States (US)
Launch site: AIR FORCE WESTERN TEST RANGE (AFWTR)
Your satellite tracking list
Your tracking list is empty




NASA's NSSDC Master Catalog

Two Line Element Set (TLE):
1 56341U 23058AA  24253.96262622 -.00000467  00000-0 -31789-4 0  9999
2 56341  97.6563 253.5880 0001312  99.3555 260.7817 15.01255771 75761
Source of the keplerian elements: AFSPC